Location: Austin
(30.3000°N, 97.7500°W)
Time: 04:25:11
(UTC-05:00)

Meteor 1-21 - Pass Details

Date: 18 March 2023
Orbit: 845 x 886 km, 81.2° (Epoch: 01 April)

Event Time Altitude Azimuth Distance (km) Brightness Sun altitude
Rises 21:12:33 0° 360° (N) 3,409 7.5 -20.4°
Reaches altitude 10° 21:15:04 10° 6° (N) 2,474 6.7 -21.0°
Maximum altitude 21:20:28 48° 80° (E) 1,107 4.4 -22.1°
Enters shadow 21:20:47 47° 90° (E) 1,115 4.4 -22.2°
